This is the latest recevied weather packets stored in our database for station/object N9BSW. If no packets are shown the sender has not sent any weather packets the latest 10 day(s).
| Time | Temp. | Humidity | Pressure | Rain* | Wind** | Luminosity | Snow |
|---|---|---|---|---|---|---|---|
| 1777738289 | 12.22° C | 37% | 1019.6 hPa | 0 mm | - | 768 W/m² | - |
| 1777737987 | 11.67° C | 38% | 1019.4 hPa | 0 mm | - | 759 W/m² | - |
| 1777737685 | 11.67° C | 37% | 1019.3 hPa | 0 mm | - | 750 W/m² | - |
| 1777737383 | 11.67° C | 38% | 1019.6 hPa | 0 mm | - | 740 W/m² | - |
| 1777737080 | 11.11° C | 34% | 1019.5 hPa | 0 mm | - | 730 W/m² | - |
| 1777736776 | 10.56° C | 39% | 1019.6 hPa | 0 mm | - | 720 W/m² | - |
| 1777736148 | 10.56° C | 38% | 1019.6 hPa | 0 mm | - | 700 W/m² | - |
| 1777735845 | 11.11° C | 40% | 1019.5 hPa | 0 mm | - | 688 W/m² | - |
| 1777735542 | 11.67° C | 42% | 1019.6 hPa | 0 mm | - | 675 W/m² | - |
| 1777735240 | 10.56° C | 41% | 1019.5 hPa | 0 mm | - | 666 W/m² | - |
| 1777734936 | 10.56° C | 38% | 1019.5 hPa | 0 mm | - | 655 W/m² | - |
| 1777734634 | 10° C | 41% | 1019.4 hPa | 0 mm | - | 641 W/m² | - |
| 1777734332 | 10.56° C | 40% | 1019.3 hPa | 0 mm | - | 629 W/m² | - |
| 1777734028 | 10.56° C | 41% | 1019.5 hPa | 0 mm | - | 615 W/m² | - |
| 1777733724 | 10.56° C | 41% | 1019.5 hPa | 0 mm | - | 603 W/m² | - |
| 1777733420 | 10.56° C | 43% | 1019.3 hPa | 0 mm | - | 590 W/m² | - |
| 1777733117 | 10.56° C | 41% | 1019.5 hPa | 0 mm | - | 573 W/m² | - |
| 1777732814 | 10° C | 42% | 1019.5 hPa | 0 mm | - | 560 W/m² | - |
| 1777732510 | 9.44° C | 42% | 1019.7 hPa | 0 mm | - | 546 W/m² | - |
| 1777732208 | 9.44° C | 43% | 1019.5 hPa | 0 mm | - | 529 W/m² | - |
| 1777731905 | 8.89° C | 39% | 1019.7 hPa | 0 mm | - | 489 W/m² | - |
| 1777731601 | 9.44° C | 37% | 1019.5 hPa | 0 mm | - | 499 W/m² | - |
| 1777731299 | 9.44° C | 42% | 1019.5 hPa | 0 mm | - | 476 W/m² | - |
| 1777730996 | 8.89° C | 43% | 1019.6 hPa | 0 mm | - | 466 W/m² | - |
| 1777730695 | 9.44° C | 47% | 1019.5 hPa | 0 mm | - | 448 W/m² | - |
* Rain latest hour (hover to see other rain measurements)
** Current wind speed in m/s (hover to see current wind gust speed)